Flag for Germany Weather past 2 weeks in Dresden, Saxony, Germany

Now
52 °F

Light rain. Passing clouds.


Feels Like: 47 °F
Forecast: 43 / 54 °F
Wind: 13 mph from Southwest

Location: Dresden-Klotzsche

Current Time: Dec 18, 2014 at 7:44:22 PM

Latest Report: Dec 18, 2014 at 7:20 PM


Visibility: N/A

Pressure: 29.83 "Hg

Humidity: 82%

Dew point: 46 °F

Location of DresdenLocation

Historic Weather in Dresden — Graph

°F

Dresden temperature yesterday

Maximum temperature yesterday: 41 °F (at 1:20 PM)
Minimum temperature yesterday: 34 °F (at 6:20 AM)
Average temperature yesterday: 38 °F

Past Weeks' High & Low Weather Summary

 TemperatureHumidityPressure
High52 °F (Dec 12, 11:50 PM)100% (Dec 5, 8:50 PM)30.39 "Hg (Dec 5, 8:50 PM)
Low25 °F (Dec 9, 6:50 AM)62% (Dec 12, 4:50 PM)29.53 "Hg (Dec 12, 10:20 PM)
Average39 °F86%29.97 "Hg
* Reported Dec 3 6:20 PM — Dec 18 6:50 PM, Dresden, Weather by CustomWeather, © 2014

Note: Actual official high and low records may vary slightly from our data, if they occured in-between our weather recording intervals... More about our weather records

Advertising

Dresden weather history for previous 24 hours

 ConditionsComfort  
Time TempWeatherWind HumidityBarometerVisibility
6:50 PM
Dec 18
52 °FOvercast.13 mph77%29.83 "HgN/A
6:20 PM50 °FPassing clouds.14 mph88%29.83 "HgN/A
5:50 PM50 °FPassing clouds.13 mph88%29.83 "HgN/A
5:20 PM50 °FPartly cloudy.15 mph88%29.83 "HgN/A
4:20 PM50 °FPassing clouds.10 mph82%29.83 "HgN/A
3:50 PM52 °FPartly sunny.13 mph77%29.83 "HgN/A
3:20 PM52 °FPartly sunny.13 mph77%29.83 "HgN/A
2:50 PM52 °FPartly sunny.12 mph77%29.83 "HgN/A
2:20 PM50 °FDrizzle. Broken clouds.10 mph88%29.83 "HgN/A
1:50 PM50 °FPartly sunny.13 mph88%29.83 "HgN/A
1:20 PM50 °FDrizzle. Partly sunny.12 mph88%29.83 "HgN/A
12:50 PM50 °FPartly sunny.10 mph82%29.86 "HgN/A
12:20 PM50 °FPartly sunny.6 mph82%29.86 "HgN/A
11:20 AM48 °FPartly sunny.7 mph87%29.86 "HgN/A
10:50 AM46 °FPartly sunny.7 mph93%29.86 "HgN/A
10:20 AM46 °FPartly sunny.7 mph93%29.86 "HgN/A
9:50 AM46 °FDrizzle. Partly sunny.10 mph93%29.89 "Hg4 mi
9:20 AM46 °FPartly sunny.9 mph87%29.89 "HgN/A
8:50 AM46 °FPartly sunny.9 mph82%29.89 "HgN/A
8:20 AM46 °FPartly sunny.9 mph82%29.86 "HgN/A
7:50 AM46 °FPassing clouds.9 mph82%29.86 "HgN/A
7:20 AM46 °FPassing clouds.9 mph82%29.86 "HgN/A
6:50 AM45 °FPassing clouds.8 mph87%29.86 "HgN/A
6:20 AM45 °FPartly cloudy.10 mph87%29.86 "HgN/A
5:50 AM45 °FPassing clouds.9 mph87%29.83 "HgN/A
5:20 AM45 °FPassing clouds.9 mph87%29.83 "HgN/A
4:20 AM45 °FPassing clouds.10 mph87%29.83 "HgN/A
3:50 AM45 °FPassing clouds.10 mph87%29.80 "HgN/A
3:20 AM45 °FPassing clouds.12 mph87%29.80 "HgN/A
2:50 AM45 °FPassing clouds.12 mph87%29.80 "HgN/A
2:20 AM43 °FPartly cloudy.10 mph87%29.80 "HgN/A
1:50 AM43 °FPartly cloudy.12 mph87%29.77 "HgN/A
1:20 AM43 °FPassing clouds.9 mph87%29.77 "HgN/A
12:50 AM43 °FPartly cloudy.10 mph87%29.74 "HgN/A
12:20 AM41 °FPassing clouds.12 mph93%29.74 "HgN/A
11:20 PM
Dec 17
41 °FLight rain. Mostly cloudy.10 mph87%29.74 "HgN/A
10:50 PM41 °FLight rain. Mostly cloudy.12 mph87%29.71 "HgN/A
10:20 PM39 °FPassing clouds.10 mph93%29.71 "Hg4 mi
9:50 PM39 °FPartly cloudy.12 mph93%29.71 "HgN/A
9:20 PM39 °FLight rain. Passing clouds.10 mph93%29.68 "HgN/A
8:50 PM39 °FPassing clouds.9 mph87%29.68 "HgN/A
8:20 PM39 °FPassing clouds.12 mph87%29.68 "HgN/A
7:50 PM39 °FPassing clouds.10 mph87%29.68 "HgN/A
7:20 PM39 °FPassing clouds.14 mph81%29.68 "HgN/A
Weather by CustomWeather, © 2014

See weather overviewHow to use our weather pages